SCP
4 4 5 4 4 4 3 2 2 1 1 1 1 1 1 3 4 4 2 1 0 0 0 1 1 1 1 1 1 1 1 1 1 1 1 1 2 2
3 3 4 4 4 4 4 3 2 1 1 1 1 1 1 2 2 2 2 1 1 0 0 0 1 1 1 1 0 1 1 1 1 1 1 1 1 1
2 2 3 3 4 5 4 4 3 2 1 1 1 1 1 1 1 2 2 2 2 1 0 0 0 0 0 0 0 0 1 1 1 1 1 1 1 1
2 2 2 2 3 4 5 5 4 3 2 2 1 2 2 2 2 2 2 2 2 2 1 0 0 0 0 0 0 0 0 0 1 1 1 1 1 1
2 2 2 2 2 3 4 5 5 4 3 3 2 2 2 2 2 2 2 3 2 2 1 1 0 0 0 0 0 0 0 0 0 1 1 1 1 1
3 3 2 2 2 2 2 3 4 4 4 3 3 2 3 2 2 2 2 2 2 2 2 1 1 0 0 0 0 0 0 0 0 0 0 1 1 1
3 3 2 2 2 1 1 2 2 3 3 3 3 3 3 3 2 2 2 1 2 2 2 2 1 1 1 1 0 0 0 0 0 0 0 0 0 0
3 3 2 2 2 2 1 1 1 1 2 2 3 3 3 3 3 2 2 1 2 2 2 2 2 2 2 1 1 0 0 0 0 0 0 0 0 0
2 2 2 2 2 1 1 1 1 1 1 2 2 2 3 3 3 3 2 2 2 2 2 2 2 2 2 1 1 0 0 0 0 0 0 0 0 0
2 2 1 1 1 1 1 1 1 1 1 1 1 2 2 3 3 3 2 2 2 2 2 2 2 1 1 1 1 0 0 0 0 0 0 0 0 0
2 1 1 1 1 0 1 1 1 1 1 1 1 1 1 2 2 2 2 2 2 2 1 1 1 1 1 1 1 0 0 0 0 0 0 0 0 0
2 1 1 1 0 0 1 1 1 1 1 1 1 1 1 1 1 1 2 2 2 2 2 2 1 1 1 1 1 1 0 0 0 0 0 0 0 0
2 1 1 0 0 0 0 1 1 1 1 1 1 1 1 1 1 1 2 2 2 2 2 2 1 1 1 1 1 1 1 1 0 0 0 0 0 0
2 1 1 0 0 0 0 1 1 1 1 1 1 1 2 2 1 1 1 2 2 2 2 1 1 1 1 0 0 0 1 1 1 1 0 0 0 0
1 1 1 0 0 0 0 0 0 1 1 1 1 1 2 2 2 1 1 1 1 1 1 1 1 1 0 0 0 0 0 1 1 1 1 0 0 0
1 1 1 0 0 0 0 0 1 1 1 1 1 1 1 1 1 1 1 1 1 1 1 1 1 1 0 0 0 0 0 1 1 1 1 1 0 0
1 1 1 1 1 1 1 1 1 1 1 1 1 1 1 1 1 1 1 1 1 1 1 1 1 1 1 1 0 0 0 0 0 1 0 0 1 1
1 1 1 2 2 2 1 1 1 1 1 1 1 1 1 1 1 1 1 1 0 0 0 0 1 1 1 1 0 0 0 0 0 0 0 0 0 0
1 2 2 2 2 2 2 1 1 1 1 1 1 1 1 1 1 1 0 0 0 0 0 0 0 0 0 0 0 0 0 0 0 0 0 0 0 0
2 2 2 2 3 2 2 2 1 1 1 1 1 1 1 1 1 1 1 1 0 0 0 0 0 0 0 0 0 0 0 0 0 0 0 0 0 0
2 2 2 2 2 3 2 2 2 2 2 2 1 1 1 1 1 1 1 1 1 1 0 1 1 1 0 0 0 0 0 0 0 0 0 0 0 0
2 2 2 2 2 2 2 2 2 2 2 2 2 2 1 1 1 1 1 1 1 1 1 1 1 1 1 1 1 1 1 1 0 0 0 0 0 0
2 2 3 3 3 3 2 2 2 2 2 2 2 2 2 1 1 1 1 1 1 1 1 1 1 1 1 1 1 1 1 1 1 0 0 0 0 0
Wind_Speed
2 2 2 2 2 1 1 1 1 1 1 1 0 1 1 2 3 3 3 6 7 6 5 5 4 4 4 4 5 5 5 5 4 4 4 5 6 6
1 1 2 2 2 2 1 1 1 1 1 1 0 0 0 1 3 2 3 6 7 7 6 5 5 4 4 4 4 4 4 4 4 5 5 5 5 5
1 1 1 2 2 2 2 1 1 1 2 2 1 0 0 0 1 1 3 4 4 7 7 7 6 5 4 4 4 5 5 5 5 6 5 5 5 5
1 1 2 2 2 2 2 2 1 1 1 2 1 1 1 1 1 2 2 3 3 7 8 8 7 6 5 5 5 5 6 6 6 6 6 6 6 6
1 1 2 2 2 2 2 2 2 2 1 2 2 1 1 1 1 1 1 1 3 4 7 8 8 7 6 6 5 5 5 6 6 6 6 6 6 6
1 1 1 1 2 3 2 2 2 2 2 2 2 1 1 1 0 1 1 1 2 2 2 3 5 7 7 7 6 6 6 6 7 7 7 7 7 7
1 1 1 1 0 2 2 2 2 2 2 2 2 1 1 1 1 1 1 1 2 1 1 1 2 2 3 5 6 7 7 7 8 8 8 8 8 7
2 1 1 0 0 1 2 3 3 2 2 2 2 2 1 2 1 2 1 2 2 1 1 2 1 1 2 2 4 6 8 8 8 8 9 9 8 8
1 1 2 2 2 2 2 3 3 2 2 2 2 2 2 2 2 2 2 2 2 2 2 2 1 1 2 2 4 6 7 8 8 9 9 9 8 8
1 1 1 1 2 3 3 2 2 2 2 2 2 3 2 2 2 2 3 3 2 2 1 2 2 2 3 1 3 5 6 7 7 8 8 8 9 9
1 1 1 1 2 3 2 2 3 2 2 2 3 3 3 2 2 2 2 2 2 1 1 1 1 2 2 2 2 4 5 6 7 7 8 8 8 7
1 1 1 2 2 2 2 2 3 3 3 3 2 3 3 3 3 1 1 2 2 2 1 1 1 2 2 2 1 1 2 4 6 6 7 7 7 4
1 1 1 1 2 3 3 3 4 5 4 3 2 1 1 1 2 2 2 2 3 2 2 1 2 2 1 2 3 2 1 1 1 2 4 6 7 5
2 1 1 2 2 3 3 4 6 5 3 2 1 1 1 2 2 2 3 3 3 3 3 2 2 2 2 3 3 2 2 1 1 1 2 3 4 5
2 2 3 4 4 4 5 5 4 2 2 2 2 2 2 2 2 1 1 2 2 3 3 3 3 2 2 3 3 3 3 2 1 1 1 2 2 2
3 4 5 6 6 5 4 3 2 2 2 2 2 2 2 2 1 1 1 1 1 2 2 2 3 2 2 3 2 3 2 2 2 1 1 1 1 2
2 3 3 3 3 2 2 2 1 1 2 2 2 2 2 2 2 2 1 1 1 2 2 1 1 2 2 2 2 3 2 2 2 2 2 2 1 2
2 3 3 3 2 2 1 2 2 2 2 2 2 2 2 2 2 2 2 2 1 2 2 2 1 1 1 2 3 3 3 2 2 2 2 2 3 2
3 4 3 3 2 2 2 2 1 1 2 2 2 2 2 2 2 2 2 2 2 2 2 2 1 1 2 3 2 3 3 3 2 2 2 2 3 2
4 3 3 3 2 2 2 1 1 1 1 2 2 2 2 2 2 2 2 2 2 2 3 2 2 2 2 3 2 3 4 3 2 2 2 1 1 2
3 3 3 3 2 1 1 1 1 1 2 2 2 2 2 2 2 2 2 3 3 2 3 3 3 4 3 2 2 2 2 2 3 2 2 2 2 2
3 3 3 2 2 2 2 2 2 2 2 2 2 2 2 2 2 3 3 3 2 2 3 3 3 2 2 2 3 3 3 2 2 2 1 1 2 2
2 2 2 2 2 2 2 2 2 1 1 2 2 2 2 2 2 2 2 2 2 2 3 2 2 2 2 2 3 3 2 2 1 1 1 2 2 1
Wind_Direction
315 322 319 320 323 338 337 307 285 302 308 274 30 98 97 114 137 156 151 169 180 184 187 191 197 207 212 220 224 230 231 225 226 234 245 250 253 256
298 323 325 331 331 324 309 318 304 260 285 296 289 110 46 90 152 158 166 180 187 185 186 188 194 199 210 217 220 218 221 227 230 236 242 248 249 254
314 317 336 344 332 326 326 314 308 292 271 288 303 82 332 3 127 200 180 185 189 191 187 188 191 200 209 213 215 214 215 222 230 235 238 243 246 250
315 324 330 322 321 318 319 318 317 296 280 284 280 276 267 252 224 221 219 206 190 189 191 191 194 203 212 217 220 219 219 221 225 229 232 236 242 248
296 308 314 325 325 312 312 325 315 306 273 267 270 264 271 297 294 284 271 253 225 190 193 198 200 205 212 219 225 225 227 226 224 225 229 231 237 244
255 242 275 309 313 304 306 312 306 297 287 285 282 296 323 307 304 278 287 274 260 223 195 192 199 208 216 222 229 228 228 226 225 225 227 228 230 234
298 244 180 141 327 310 317 317 309 303 300 293 291 309 315 322 308 281 290 294 291 263 195 215 203 212 215 226 229 230 228 226 225 226 226 227 228 229
331 325 243 127 296 274 313 312 304 286 298 302 301 303 304 302 303 296 303 306 291 291 301 274 227 229 229 222 218 214 219 222 224 226 225 225 226 228
297 317 322 346 3 336 297 273 276 278 257 264 296 304 292 300 300 294 297 285 278 278 292 278 273 282 270 254 221 220 221 221 224 227 226 224 226 229
279 266 276 329 331 327 307 303 276 258 255 254 270 283 291 306 298 287 285 291 269 264 264 263 262 267 291 269 237 227 225 227 228 228 227 224 224 227
275 319 295 290 303 305 292 296 300 284 269 263 255 256 264 273 295 315 311 309 301 293 307 283 279 297 290 272 243 233 233 234 234 232 231 230 228 226
230 208 278 280 281 282 285 293 286 288 294 282 249 242 237 237 231 237 272 278 295 295 314 311 295 315 305 298 289 248 247 249 245 237 230 225 225 220
255 240 257 252 259 260 269 278 279 290 290 273 251 247 244 234 225 223 230 242 258 269 280 306 299 308 293 300 309 294 266 262 237 232 224 225 225 211
287 297 292 261 261 264 268 281 289 292 284 280 279 273 263 265 251 232 227 230 231 244 254 265 264 277 290 294 296 297 291 274 244 227 209 216 221 220
268 305 307 281 263 255 254 267 278 282 286 290 284 281 277 272 264 250 245 240 239 249 245 240 239 252 259 271 277 287 290 283 259 251 229 202 209 209
262 278 280 270 259 258 254 249 241 252 262 275 287 293 300 296 276 259 252 248 265 277 255 247 239 228 249 266 273 286 292 287 285 263 250 250 228 212
301 269 260 248 234 228 218 217 229 248 256 267 284 295 294 294 288 287 278 280 284 293 294 272 251 214 232 253 265 274 277 281 283 278 258 257 251 235
289 271 271 274 273 268 254 238 219 234 243 242 252 268 276 277 278 275 273 275 273 278 285 278 274 279 275 276 251 255 264 276 278 274 260 261 265 255
258 261 264 266 269 267 265 268 261 253 253 247 256 265 273 286 293 285 272 276 281 279 277 272 261 257 276 286 272 253 268 276 274 268 256 250 254 250
249 259 261 263 263 264 268 275 288 288 282 272 267 269 264 264 272 283 277 272 275 277 279 273 269 264 264 276 283 284 274 274 276 276 276 269 265 259
247 253 261 268 270 263 268 259 262 270 275 270 273 279 275 270 267 271 277 280 275 282 287 282 266 263 266 282 284 281 291 291 287 277 269 262 265 257
252 262 265 261 263 263 260 256 258 265 274 272 269 271 271 271 274 273 273 275 273 279 282 284 286 279 268 267 274 276 275 269 288 299 319 280 251 249
252 258 266 273 272 273 276 278 280 285 292 297 297 289 284 279 279 280 277 274 279 291 297 297 295 292 284 271 268 275 277 270 269 287 309 315 285 258